Time,TemperatureF,DewpointF,PressureIn,WindDirection,WindDirectionDegrees,WindSpeedMPH,WindSpeedGustMPH,Humidity,HourlyPrecipIn,Conditions,Clouds,dailyrainin,SolarRadiationWatts/m^2,SoftwareType,DateUTC
2013-01-18 00:01:00,27.0,20.0,-100.00,NNE,27,6.0,16.0,75,0.00,,,0.00,0.000000,,2013-01-18 05:01:00,
2013-01-18 00:22:00,27.0,20.0,-100.00,NNE,27,6.0,16.0,75,0.00,,,0.00,0.000000,,2013-01-18 05:22:00,
2013-01-18 00:33:00,27.0,20.0,-100.00,NNE,27,6.0,16.0,75,0.00,,,0.00,0.000000,,2013-01-18 05:33:00,
2013-01-18 00:43:00,27.0,20.0,-100.00,NNE,27,6.0,16.0,75,0.00,,,0.00,0.000000,,2013-01-18 05:43:00,
2013-01-18 00:53:00,27.0,20.0,-100.00,NNE,27,6.0,16.0,75,0.00,,,0.00,0.000000,,2013-01-18 05:53:00,
2013-01-18 01:01:00,26.0,19.0,-100.00,NNE,16,7.0,19.0,74,0.00,,,0.00,0.000000,,2013-01-18 06:01:00,
2013-01-18 01:33:00,26.0,19.0,-100.00,NNE,16,7.0,19.0,74,0.00,,,0.00,0.000000,,2013-01-18 06:33:00,
2013-01-18 01:43:00,26.0,19.0,-100.00,NNE,16,7.0,19.0,74,0.00,,,0.00,0.000000,,2013-01-18 06:43:00,
2013-01-18 01:53:00,26.0,19.0,-100.00,NNE,16,7.0,19.0,74,0.00,,,0.00,0.000000,,2013-01-18 06:53:00,
2013-01-18 02:01:00,25.0,19.0,-100.00,NNW,348,9.0,18.0,76,0.00,,,0.00,0.000000,,2013-01-18 07:01:00,
2013-01-18 02:33:00,25.0,19.0,-100.00,NNW,348,9.0,18.0,76,0.00,,,0.00,0.000000,,2013-01-18 07:33:00,
2013-01-18 02:42:00,25.0,19.0,-100.00,NNW,348,9.0,18.0,76,0.00,,,0.00,0.000000,,2013-01-18 07:42:00,
2013-01-18 02:52:00,25.0,19.0,-100.00,NNW,348,9.0,18.0,76,0.00,,,0.00,0.000000,,2013-01-18 07:52:00,
2013-01-18 03:01:00,25.0,19.0,-100.00,North,11,10.0,26.0,78,0.01,,,0.01,0.000000,,2013-01-18 08:01:00,
2013-01-18 03:22:00,25.0,19.0,-100.00,North,11,10.0,26.0,78,0.01,,,0.01,0.000000,,2013-01-18 08:22:00,
2013-01-18 03:33:00,25.0,19.0,-100.00,North,11,10.0,26.0,78,0.01,,,0.01,0.000000,,2013-01-18 08:33:00,
2013-01-18 03:43:00,25.0,19.0,-100.00,North,11,10.0,26.0,78,0.01,,,0.01,0.000000,,2013-01-18 08:43:00,
2013-01-18 03:53:00,25.0,19.0,-100.00,North,11,10.0,26.0,78,0.01,,,0.01,0.000000,,2013-01-18 08:53:00,
2013-01-18 04:01:00,25.0,18.0,-100.00,North,353,12.0,27.0,75,0.00,,,0.01,0.000000,,2013-01-18 09:01:00,
2013-01-18 04:22:00,25.0,18.0,-100.00,North,353,12.0,27.0,75,0.00,,,0.01,0.000000,,2013-01-18 09:22:00,
2013-01-18 04:33:00,25.0,18.0,-100.00,North,353,12.0,27.0,75,0.00,,,0.01,0.000000,,2013-01-18 09:33:00,
2013-01-18 04:43:00,25.0,18.0,-100.00,North,353,12.0,27.0,75,0.00,,,0.01,0.000000,,2013-01-18 09:43:00,
2013-01-18 04:53:00,25.0,18.0,-100.00,North,353,12.0,27.0,75,0.00,,,0.01,0.000000,,2013-01-18 09:53:00,
2013-01-18 05:01:00,23.0,16.0,-100.00,NNW,342,12.0,28.0,74,0.00,,,0.01,0.000000,,2013-01-18 10:01:00,
2013-01-18 05:22:00,23.0,16.0,-100.00,NNW,342,12.0,28.0,74,0.00,,,0.01,0.000000,,2013-01-18 10:22:00,
2013-01-18 05:33:00,23.0,16.0,-100.00,NNW,342,12.0,28.0,74,0.00,,,0.01,0.000000,,2013-01-18 10:33:00,
2013-01-18 05:43:00,23.0,16.0,-100.00,NNW,342,12.0,28.0,74,0.00,,,0.01,0.000000,,2013-01-18 10:43:00,
2013-01-18 05:53:00,23.0,16.0,-100.00,NNW,342,12.0,28.0,74,0.00,,,0.01,0.000000,,2013-01-18 10:53:00,
2013-01-18 06:01:00,22.0,16.0,-100.00,NNW,340,9.0,24.0,76,0.00,,,0.01,0.000000,,2013-01-18 11:01:00,
2013-01-18 06:23:00,22.0,16.0,-100.00,NNW,340,9.0,24.0,76,0.00,,,0.01,0.000000,,2013-01-18 11:23:00,
2013-01-18 06:33:00,22.0,16.0,-100.00,NNW,340,9.0,24.0,76,0.00,,,0.01,0.000000,,2013-01-18 11:33:00,
2013-01-18 06:43:00,22.0,16.0,-100.00,NNW,340,9.0,24.0,76,0.00,,,0.01,0.000000,,2013-01-18 11:43:00,
2013-01-18 06:53:00,22.0,16.0,-100.00,NNW,340,9.0,24.0,76,0.00,,,0.01,0.000000,,2013-01-18 11:53:00,
2013-01-18 07:01:00,20.0,13.0,-100.00,North,2,6.0,23.0,74,0.00,,,0.01,0.000000,,2013-01-18 12:01:00,
2013-01-18 07:33:00,20.0,13.0,-100.00,North,2,6.0,23.0,74,0.00,,,0.01,0.000000,,2013-01-18 12:33:00,
2013-01-18 07:43:00,20.0,13.0,-100.00,North,2,6.0,23.0,74,0.00,,,0.01,0.000000,,2013-01-18 12:43:00,
2013-01-18 07:53:00,20.0,13.0,-100.00,North,2,6.0,23.0,74,0.00,,,0.01,0.000000,,2013-01-18 12:53:00,
2013-01-18 08:01:00,19.0,11.0,-100.00,North,358,5.0,15.0,69,0.00,,,0.01,6.000000,,2013-01-18 13:01:00,
2013-01-18 08:33:00,19.0,11.0,-100.00,North,358,5.0,15.0,69,0.00,,,0.01,6.000000,,2013-01-18 13:33:00,
2013-01-18 08:43:00,19.0,11.0,-100.00,North,358,5.0,15.0,69,0.00,,,0.01,6.000000,,2013-01-18 13:43:00,
2013-01-18 08:53:00,19.0,11.0,-100.00,North,358,5.0,15.0,69,0.00,,,0.01,6.000000,,2013-01-18 13:53:00,
2013-01-18 09:01:00,20.0,8.0,-100.00,NW,323,6.0,11.0,60,0.00,,,0.01,111.000000,,2013-01-18 14:01:00,
2013-01-18 09:34:00,20.0,8.0,-100.00,NW,323,6.0,11.0,60,0.00,,,0.01,111.000000,,2013-01-18 14:34:00,
2013-01-18 09:43:00,20.0,8.0,-100.00,NW,323,6.0,11.0,60,0.00,,,0.01,111.000000,,2013-01-18 14:43:00,
2013-01-18 09:53:00,20.0,8.0,-100.00,NW,323,6.0,11.0,60,0.00,,,0.01,111.000000,,2013-01-18 14:53:00,
2013-01-18 10:01:00,23.0,9.0,-100.00,NNW,338,5.0,11.0,55,0.00,,,0.01,340.000000,,2013-01-18 15:01:00,
2013-01-18 10:34:00,23.0,9.0,-100.00,NNW,338,5.0,11.0,55,0.00,,,0.01,340.000000,,2013-01-18 15:34:00,
2013-01-18 10:43:00,23.0,9.0,-100.00,NNW,338,5.0,11.0,55,0.00,,,0.01,340.000000,,2013-01-18 15:43:00,
2013-01-18 10:54:00,23.0,9.0,-100.00,NNW,338,5.0,11.0,55,0.00,,,0.01,340.000000,,2013-01-18 15:54:00,
2013-01-18 11:01:00,27.0,7.0,-100.00,North,6,3.0,8.0,42,0.00,,,0.01,510.000000,,2013-01-18 16:01:00,
2013-01-18 11:23:00,27.0,7.0,-100.00,North,6,3.0,8.0,42,0.00,,,0.01,510.000000,,2013-01-18 16:23:00,
2013-01-18 11:33:00,27.0,7.0,-100.00,North,6,3.0,8.0,42,0.00,,,0.01,510.000000,,2013-01-18 16:33:00,
2013-01-18 11:43:00,27.0,7.0,-100.00,North,6,3.0,8.0,42,0.00,,,0.01,510.000000,,2013-01-18 16:43:00,
2013-01-18 11:53:00,27.0,7.0,-100.00,North,6,3.0,8.0,42,0.00,,,0.01,510.000000,,2013-01-18 16:53:00,
2013-01-18 12:01:00,29.0,3.0,-100.00,NE,38,6.0,10.0,32,0.00,,,0.01,626.000000,,2013-01-18 17:01:00,
2013-01-18 12:34:00,29.0,3.0,-100.00,NE,38,6.0,10.0,32,0.00,,,0.01,626.000000,,2013-01-18 17:34:00,
2013-01-18 12:43:00,29.0,3.0,-100.00,NE,38,6.0,10.0,32,0.00,,,0.01,626.000000,,2013-01-18 17:43:00,
2013-01-18 12:53:00,29.0,3.0,-100.00,NE,38,6.0,10.0,32,0.00,,,0.01,626.000000,,2013-01-18 17:53:00,
2013-01-18 13:01:00,33.0,2.0,-100.00,NW,317,3.0,6.0,26,0.00,,,0.01,674.000000,,2013-01-18 18:01:00,
2013-01-18 13:34:00,33.0,2.0,-100.00,NW,317,3.0,6.0,26,0.00,,,0.01,674.000000,,2013-01-18 18:34:00,
2013-01-18 13:43:00,33.0,2.0,-100.00,NW,317,3.0,6.0,26,0.00,,,0.01,674.000000,,2013-01-18 18:43:00,
2013-01-18 13:53:00,33.0,2.0,-100.00,NW,317,3.0,6.0,26,0.00,,,0.01,674.000000,,2013-01-18 18:53:00,
2013-01-18 14:01:00,33.0,1.0,-100.00,NNW,328,4.0,11.0,25,0.00,,,-99.99,651.000000,,2013-01-18 19:01:00,
2013-01-18 14:33:00,33.0,1.0,-100.00,NNW,328,4.0,11.0,25,0.00,,,-99.99,651.000000,,2013-01-18 19:33:00,
2013-01-18 14:43:00,33.0,1.0,-100.00,NNW,328,4.0,11.0,25,0.00,,,-99.99,651.000000,,2013-01-18 19:43:00,
2013-01-18 14:53:00,33.0,1.0,-100.00,NNW,328,4.0,11.0,25,0.00,,,-99.99,651.000000,,2013-01-18 19:53:00,
2013-01-18 15:01:00,34.0,-3.0,-100.00,NNW,341,1.0,6.0,20,0.00,,,-99.99,559.000000,,2013-01-18 20:01:00,
2013-01-18 15:33:00,34.0,-3.0,-100.00,NNW,341,1.0,6.0,20,0.00,,,-99.99,559.000000,,2013-01-18 20:33:00,
2013-01-18 15:43:00,34.0,-3.0,-100.00,NNW,341,1.0,6.0,20,0.00,,,-99.99,559.000000,,2013-01-18 20:43:00,
2013-01-18 15:53:00,34.0,-3.0,-100.00,NNW,341,1.0,6.0,20,0.00,,,-99.99,559.000000,,2013-01-18 20:53:00,
2013-01-18 16:01:00,35.0,-2.0,-100.00,NE,38,1.0,2.0,20,0.00,,,0.01,407.000000,,2013-01-18 21:01:00,
2013-01-18 16:33:00,35.0,-2.0,-100.00,NE,38,1.0,2.0,20,0.00,,,0.01,407.000000,,2013-01-18 21:33:00,
2013-01-18 16:43:00,35.0,-2.0,-100.00,NE,38,1.0,2.0,20,0.00,,,0.01,407.000000,,2013-01-18 21:43:00,
2013-01-18 16:53:00,35.0,-2.0,-100.00,NE,38,1.0,2.0,20,0.00,,,0.01,407.000000,,2013-01-18 21:53:00,
2013-01-18 17:01:00,36.0,1.0,-100.00,NNW,342,2.0,4.0,22,0.00,,,0.01,212.000000,,2013-01-18 22:01:00,
2013-01-18 17:33:00,36.0,1.0,-100.00,NNW,342,2.0,4.0,22,0.00,,,0.01,212.000000,,2013-01-18 22:33:00,
2013-01-18 17:43:00,36.0,1.0,-100.00,NNW,342,2.0,4.0,22,0.00,,,0.01,212.000000,,2013-01-18 22:43:00,
2013-01-18 17:53:00,36.0,1.0,-100.00,NNW,342,2.0,4.0,22,0.00,,,0.01,212.000000,,2013-01-18 22:53:00,
2013-01-18 18:01:00,31.0,-2.0,-100.00,WSW,251,4.0,6.0,24,0.00,,,0.01,22.000000,,2013-01-18 23:01:00,
2013-01-18 18:23:00,31.0,-2.0,-100.00,WSW,251,4.0,6.0,24,0.00,,,0.01,22.000000,,2013-01-18 23:23:00,
2013-01-18 18:33:00,31.0,-2.0,-100.00,WSW,251,4.0,6.0,24,0.00,,,0.01,22.000000,,2013-01-18 23:33:00,
2013-01-18 18:43:00,31.0,-2.0,-100.00,WSW,251,4.0,6.0,24,0.00,,,0.01,22.000000,,2013-01-18 23:43:00,
2013-01-18 18:53:00,31.0,-2.0,-100.00,WSW,251,4.0,6.0,24,0.00,,,0.01,22.000000,,2013-01-18 23:53:00,
2013-01-18 19:01:00,29.0,1.0,-100.00,SW,221,7.0,9.0,30,0.00,,,0.01,0.000000,,2013-01-19 00:01:00,
2013-01-18 19:23:00,29.0,1.0,-100.00,SW,221,7.0,9.0,30,0.00,,,0.01,0.000000,,2013-01-19 00:23:00,
2013-01-18 19:33:00,29.0,1.0,-100.00,SW,221,7.0,9.0,30,0.00,,,0.01,0.000000,,2013-01-19 00:33:00,
2013-01-18 19:43:00,29.0,1.0,-100.00,SW,221,7.0,9.0,30,0.00,,,0.01,0.000000,,2013-01-19 00:43:00,
2013-01-18 19:53:00,29.0,1.0,-100.00,SW,221,7.0,9.0,30,0.00,,,0.01,0.000000,,2013-01-19 00:53:00,
2013-01-18 20:01:00,28.0,13.0,-100.00,SW,214,7.0,12.0,52,0.00,,,0.01,0.000000,,2013-01-19 01:01:00,
2013-01-18 20:23:00,28.0,13.0,-100.00,SW,214,7.0,12.0,52,0.00,,,0.01,0.000000,,2013-01-19 01:23:00,
2013-01-18 20:33:00,28.0,13.0,-100.00,SW,214,7.0,12.0,52,0.00,,,0.01,0.000000,,2013-01-19 01:33:00,
2013-01-18 20:43:00,28.0,13.0,-100.00,SW,214,7.0,12.0,52,0.00,,,0.01,0.000000,,2013-01-19 01:43:00,
2013-01-18 20:53:00,28.0,13.0,-100.00,SW,214,7.0,12.0,52,0.00,,,0.01,0.000000,,2013-01-19 01:53:00,
2013-01-18 21:01:00,26.0,15.0,-100.00,SSW,210,6.0,9.0,62,0.00,,,0.01,0.000000,,2013-01-19 02:01:00,
2013-01-18 21:33:00,26.0,15.0,-100.00,SSW,210,6.0,9.0,62,0.00,,,0.01,0.000000,,2013-01-19 02:33:00,
2013-01-18 21:43:00,26.0,15.0,-100.00,SSW,210,6.0,9.0,62,0.00,,,0.01,0.000000,,2013-01-19 02:43:00,
2013-01-18 21:53:00,26.0,15.0,-100.00,SSW,210,6.0,9.0,62,0.00,,,0.01,0.000000,,2013-01-19 02:53:00,
2013-01-18 22:01:00,25.0,16.0,-100.00,SSW,202,6.0,12.0,69,0.00,,,0.01,0.000000,,2013-01-19 03:01:00,
2013-01-18 22:33:00,25.0,16.0,-100.00,SSW,202,6.0,12.0,69,0.00,,,0.01,0.000000,,2013-01-19 03:33:00,
2013-01-18 22:44:00,25.0,16.0,-100.00,SSW,202,6.0,12.0,69,0.00,,,0.01,0.000000,,2013-01-19 03:44:00,
2013-01-18 22:53:00,25.0,16.0,-100.00,SSW,202,6.0,12.0,69,0.00,,,0.01,0.000000,,2013-01-19 03:53:00,
2013-01-18 23:01:00,25.0,18.0,-100.00,SSW,209,6.0,10.0,74,0.00,,,0.01,0.000000,,2013-01-19 04:01:00,
2013-01-18 23:33:00,25.0,18.0,-100.00,SSW,209,6.0,10.0,74,0.00,,,0.01,0.000000,,2013-01-19 04:33:00,
2013-01-18 23:43:00,25.0,18.0,-100.00,SSW,209,6.0,10.0,74,0.00,,,0.01,0.000000,,2013-01-19 04:43:00,
2013-01-18 23:53:00,25.0,18.0,-100.00,SSW,209,6.0,10.0,74,0.00,,,0.01,0.000000,,2013-01-19 04:53:00,